AQI (30)

Current Conditions for Foresthill, CA. Mostly Cloudy, Dry   
Visibility: 10 miles
Cloud ht: 2,800 ft
Space WX Alerts: CONTINUED ALERT:  Electron 2MeV Integral Flux exceeded 1000pfu ( Latest Alert ) - Issue Time: 2018 Dec 16 1416 UTC

  Summary / Temperature 

Current Temperature
48.7°F
9.3°C
(24/hr Ago)
44.0°F
(Apparent temp)
45.6°F
Cool
Wind Chill Graphs
48.7°F 

48.7°F/ 9.3°C
 --- Virtual Temp: 50.5°F ---

 Temp Rate:

 24/hr Difference:

 Avg Running Temp:

 Todays High:

 Todays Low:

 Y-days High:

 Y-days Low:

 Todays WChill:

 Y-days WChill:

 Evapotranspiration:

+2.6°F/hr 

+4.7°F

46.5°F

48.7°F 11:52am

39.8°F 7:28am

46.4°F 1:48pm

37.8°F 8:10am

32.5°F 6:00am

28.3°F 7:38am

0.011 in

115' Above Ground

 Temperature:

 6'AGL VRS 115'AGL:

 Avg Running Temp:

 Humidity:

 Todays High:

 Todays Low:

 Y-days High:

 Y-days Low:

50.0°F 

+1.3°F

49.2°F

65% 

51.0°F 11:01am

46.0°F 12:00am

53.0°F 12:00am

42.0°F 9:34am

Temp & Humidity Graphs

  Wind 

Wind Speed

 Calm

Gusting to

 8.0 mph

Wind from SE

131°  SE

Calm

 Avg speed:

 Wind Run:

 Peak Gust:

  2.0 mph 

8.0 miles

  14.0 mph 4:19am

  Almanac  

Moon age: 10 days,13 hours,25 minutes,81%

Waxing Gibbous
81%
Illuminated
10 days in cycle

 Moonrise:

 Moonset:

 Sunrise:

 Sunset:

 Solar Noon:

2:09pm

2:37am

7:15am

4:42pm

12:00pm

0min 17s less daylight tomorrow 

  Solar Radiation 

(Current Solar)
  276 W/m2 (52%)
(Todays High)
 431 W/m2@9:54am
Feels like: 54.1°F in the sun

Rain

 Rain Today:

 Rain Rate (/hr):

 Rain last hour:

 Rain Yesterday:

 This Month:

 Season Total:

2 Days Since Last Dry Day

0.00 in

0.000 in

0.00 in

0.44 in

2.22 in

10.72 in

Updated Time

Updated: 12/18/18  11:52am

(Updated  sec ago)

Humidity & Barometer

 Humidity:

 Wetbulb:

 Dew Point:

 Barometer:

76% 

45.2°F 

41.5°F 

30.410 inHg 

 Baro Trend:  Steady 
Northern Calif
Preparedness
Fire 
Level 

    UV Index  

(Current UV)
1.4  Low
(Todays High) @ 11:37am
1.5   Low

National Weather Service Forecast

Today

Today: Mostly Sunny
Mostly Sunny
Tonight

Tonight: Partly Cloudy
Partly Cloudy
Wednesday

Wednesday: Sunny
Sunny
Wednesday
Night
Wednesday Night: Mostly Clear
Mostly Clear
Thursday

Thursday: Mostly Sunny
Mostly Sunny
Thursday
Night
Thursday Night: Chance Light Rain
Chance Light Rain
Hi 51 °F ↓ Lo 42 °F Hi 58 °F ↓ Lo 43 °F Hi 55 °F Lo 42 °F

Foresthill Probe 2 Stats  
Foresthill Probe 2: is located on Thomas Street
at 3000 feet. The main Foresthill Weather site
is located on Melody ln at the 2860 foot elevation

Calm
48.7°F
9.3°C
Temp Rate:
+3.2°F
Calm
Gusting to
None
(Humidity)
75%
Calm
94°  
Updated: 18/12/18 - 11:47:52
 Todays High: 48.7°F 11:44
 Todays Low: 38.2°F 07:32
 Rain Today: 0.00 in
 Season Total: 10.97 in

Foresthill Wx: Monthly,Yearly, Highs and Lows 

Foresthill  
This Weather Data is coming from the main Foresthill
Weather site located on Melody ln at the 2860 foot
elevation
Not Foresthill Probe 2
Weather Data
Month
  High
Month
  Low
Year
High
Year
Low
Temp 53.8°F
12/12/18
31.7°F
12/2/18
93.9°F
8/10/18
21.9°F
2/23/18
Humidity 100%
12/1/18
34%
12/14/18
100%
1/8/18
9%
10/15/18
Heat Index 55.8°F
12/12/18
36.0°F
12/3/18
93.3°F
7/25/18
27.1°F
2/20/18
Wind Chill 53.8°F
12/12/18
19.7°F
12/3/18
93.9°F
8/10/18
9.2°F
2/23/18
Wind Gust 34 mph
12/16/18
0 mph
12/1/18
43 mph
3/1/18
0 mph
1/1/18
Barometer 30.43 in
12/18/18
29.92 in
12/5/18
30.55 in
1/27/18
29.53 in
11/29/18
ET 0.06 in
12/13/18
0.00 in
12/1/18
0.25 in
6/24/18
0.00 in
1/1/18
Dew Point 44.0°F
12/8/18
23.6°F
12/14/18
66.9°F
7/24/18
0.7°F
11/8/18
Pacific Satellite US Radar Satellite Imagery Sacramento,CA.  (click to enlarge)
NWS Weather Forecast - Summary
Updated: Tuesday, December 18, 2018 - 4:14am PST
Current Interstate Highway Conditions for I-80 & US-50

[I 80: IN THE SAN FRANCISCO BAY AREA - SOLANO CO]
no traffic restrictions are reported for this area.

[I 80: IN THE NORTHERN CALIFORNIA AREA & SIERRA NEVADA]
no traffic restrictions are reported for this area.

[US 50: IN THE SACRAMENTO VALLEY & THE LAKE TAHOE BASIN]
  1-way controlled traffic at various locations from 3. 9 mi east of twin bridges /at alpine ave/ 4. 1 mi east of twin bridges /at sierra ski ranch rd/ (EL DORADO CO) from 7:00am to 5:30pm on 12/20/18 - due to construction
NWS Weather Forecast: Today and Tonight (Updated: Tue, 18-Dec-2018 4:09am PST)
Today

Today: Mostly Sunny
Mostly Sunny

Hi 51 °F ↓
NWS forecast: Mostly sunny. High near 51, with temperatures falling to around 48 in the afternoon. South southeast wind around 5 mph.
Tonight

Tonight: Partly Cloudy
Partly Cloudy

Lo 42 °F
NWS forecast: Partly cloudy, with a low around 42. East wind around 6 mph.
YR.NO 10 Day Weather forecast
Last update: 12/18/2018 @ 01:13
Next update: 12/18/2018 @ 12:00
Provided by: 22
      Temperature Precipitation Pressure Wind  
Today
12/18/2018
10:00 12:00 48°F   30.36 inHg Light air from south 2 mph
  12:00 18:00 50°F   30.32 inHg Light air from south-southwest 3 mph
  18:00 00:00 43°F   30.32 inHg Light air from east 2 mph
    (Click to enlarge)
meteogram

    Forecast for next 9 days

      Temperature Precip Pressure Wind  
Wednesday
12/19/2018
00:00 06:00 34°F   30.33 inHg Light breeze from east-northeast 5 mph
  06:00 12:00 34°F   30.27 inHg Light breeze from east-northeast 6 mph
  12:00 18:00 59°F   30.21 inHg Light air from west 3 mph
  18:00 00:00 45°F   30.17 inHg Light air from east-southeast 2 mph
      Temperature Precip Pressure Wind  
Thursday
12/20/2018
00:00 06:00 37°F   30.13 inHg Light breeze from east 5 mph
  06:00 12:00 34°F   30.09 inHg Light breeze from east-northeast 5 mph
  12:00 18:00 57°F   30.06 inHg Light breeze from south 5 mph
  16:00 22:00 50°F   30.03 inHg Light air from west-southwest 2 mph
  22:00 04:00 46°F 0.07 in 30.06 inHg Light breeze from east-southeast 5 mph
      Temperature Precip Pressure Wind  
Friday
12/21/2018
04:00 10:00 43°F 0.11 in 30.05 inHg Light air from east-northeast 3 mph
  10:00 16:00 45°F 0.07 in 30.12 inHg Light breeze from south 4 mph
  16:00 22:00 45°F   30.12 inHg Light air from west 1 mph
  22:00 04:00 36°F   30.13 inHg Light breeze from northeast 5 mph
      Temperature Precip Pressure Wind  
Saturday
12/22/2018
04:00 10:00 28°F   30.07 inHg Light breeze from east-northeast 7 mph
  10:00 16:00 45°F   30.10 inHg Light air from east 3 mph
  16:00 22:00 43°F   30.10 inHg Light air from south 2 mph
  22:00 04:00 41°F 0.05 in 30.07 inHg Light air from east-southeast 3 mph
      Temperature Precip Pressure Wind  
Sunday
12/23/2018
04:00 10:00 39°F 0.34 in 29.96 inHg Gentle breeze from southeast 9 mph
  10:00 16:00 36°F 0.33 in 29.98 inHg Gentle breeze from southeast 10 mph
  16:00 22:00 37°F 0.19 in 29.90 inHg Gentle breeze from south-southeast 10 mph
  22:00 04:00 39°F   30.02 inHg Light breeze from southeast 7 mph
      Temperature Precip Pressure Wind  
Monday
12/24/2018
04:00 10:00 37°F   30.04 inHg Light breeze from east 5 mph
  10:00 16:00 39°F 0.33 in 29.99 inHg Light breeze from southeast 6 mph
  16:00 22:00 37°F 0.22 in 29.81 inHg Moderate breeze from south-southeast 12 mph
  22:00 04:00 37°F 0.02 in 29.77 inHg Light breeze from southeast 6 mph
      Temperature Precip Pressure Wind  
Tuesday
12/25/2018
04:00 10:00 34°F   29.78 inHg Light breeze from northeast 4 mph
  10:00 16:00 39°F   29.91 inHg Light breeze from north-northwest 4 mph
  16:00 22:00 41°F   29.87 inHg Light breeze from west-northwest 4 mph
  22:00 04:00 34°F   29.88 inHg Light breeze from northeast 7 mph
      Temperature Precip Pressure Wind  
Wednesday
12/26/2018
04:00 10:00 36°F   29.88 inHg Gentle breeze from east-northeast 8 mph
  10:00 16:00 45°F   29.91 inHg Gentle breeze from east-northeast 8 mph
  16:00 22:00 45°F   29.87 inHg Light breeze from east-northeast 4 mph
  22:00 04:00 36°F   29.88 inHg Gentle breeze from east-northeast 9 mph
      Temperature Precip Pressure Wind  
Thursday
12/27/2018
04:00 10:00 28°F   29.83 inHg Light breeze from east-northeast 5 mph
  10:00 16:00 37°F   29.83 inHg Light breeze from south 6 mph

NOAA Local Storm Report
9 MILES WEST-NORTHWEST OF JUNCTION CITY   ( More )
DATE
12/14/2018
TIME
5:15 AM
COUNTY
UNION
STATE
AR
GEOGRAPHIC
33.09N 92.85W
SOURCE
LAW ENFORCEMENT
HAIL ESTIMATED AT 0.75 INCH
penny size hail fell in the three creeks community.
How Close Are We To this Month's Temperature Record ?
Updated Tuesday, Dec 18, 2018- 11:45:01 AM

Current Temperature: 48.7°F

December's High: Temperature Record 65.8°F - Set on Tue, Dec 17, 2013 - 1:22:00 PM
We are currently 17.1°F Less than this Month's record High

December's Low: Temperature Record 20.2°F - Set on Sun, Dec 8, 2013 - 7:26:00 AM
We are currently 28.5°F More than this Month's record Low

Weather History For Tuesday, December 18, 2018


On this Day - In Weather History ...
Data courtesy of weatherforyou.com
powered by Cumulus v1.9.3 (1059)
Ambient Weather VWS v14.00
Top Contact Website Map Copyright © 2007 - 2018 Foresthillweather.com Never base important decisions on this or any weather information obtained from the Internet